| Station | Date | Time | Temp (°F) | RH (%) | Dew Pt (°F) | Wind Spd (mph) | Wind Dir (°) | Wind Gust (mph) | Latest Rain (In) | Daily Rain (In) | Daily Max Temp (°F) | Daily Min Temp (°F) |
|---|---|---|---|---|---|---|---|---|---|---|---|---|
| Dollarhide 18A Remote | 5/8/26 | 0515 | 44.5 0.9 | 100 0 | 44.4 0.8 | - | - | - | - | - | 52.4 3.5 | 44.1 1.3 |
| Dollarhide 1AS Remote | 5/8/26 | 0515 | 50.4 2.4 | 94 0 | 48.7 2.3 | 2.6 2.6 | WNW | 285 | 4.5 4.5 | - | - | 56.0 0.5 | 46.9 1.2 |
| Angwin | 5/8/26 | 0515 | 59.6 3.5 | 58 31 | 45.0 8.2 | 0.1 4.4 | SW | 219 | 1.4 4.6 | 0.00 | 0.00 | 62.9 4.1 | 57.3 2.1 |
| Lower Angwin (Pioneer) | 5/8/26 | 0515 | 44.8 2.2 | - | - | 0.0 0.0 | N | 0 | 0.0 0.0 | - | - | 48.6 1.5 | 43.9 1.5 |
| Lower Chiles Valley (Brown) | 5/8/26 | 0515 | 50.4 0.4 | 100 0 | 50.4 0.4 | 1.0 0.2 | S | 170 | 4.0 1.2 | 0.00 | 0.00 | 52.3 0.4 | 50.4 0.4 |
| Deer Park | 5/8/26 | 0515 | 50.6 1.1 | 99 0 | 50.3 1.0 | 3.6 2.1 | WNW | 301 | 6.7 3.3 | 0.00 | 0.00 | 52.4 0.4 | 50.6 0.6 |
| Moss Creek Vineyard/Reservior | 5/8/26 | 0515 | 52.1 1.4 | 98 2 | 51.6 0.9 | - | - | - | 0.00 | 0.00 | 56.1 1.9 | 51.8 1.6 |
| Montesol | 5/8/26 | 0515 | 46.0 4.0 | - | - | - | - | - | 0.00 | 0.00 | 53.1 1.8 | 43.7 4.1 |
| Dollarhide Base | 5/8/26 | 0515 | 51.5 1.1 | 98 1 | 51.1 0.9 | 2.5 0.6 | W | 261 | 4.8 2.1 | 0.00 | 0.00 | 58.7 0.4 | 51.4 1.0 |
| Pope Valley (Weeks Lake) | 5/8/26 | 0515 | 48.6 2.1 | 100 0 | 48.6 2.1 | 0.5 0.5 | SW | 225 | 1.8 1.1 | 0.00 | 0.00 | 51.8 0.9 | 46.0 0.1 |
| Max | 59.6 | 100 | 51.6 | 3.6 | - | 6.7 | 0.00 | 0.00 | 62.9 | 57.3 | ||
| Avg | 49.8 | 93 | 48.8 | 1.5 | - | 3.3 | 0.00 | - | - | - | ||
| Min | 44.5 | 58 | 44.4 | 0.0 | - | 0.0 | 0.00 | 0.00 | 48.6 | 43.7 |
| Station | Date | Time | Temp (°F) | RH (%) | Dew Pt (°F) | Wind Spd (mph) | Wind Dir (°) | Wind Gust (mph) | Latest Rain (In) | Daily Rain (In) | Daily Max Temp (°F) | Daily Min Temp (°F) |
|---|---|---|---|---|---|---|---|---|---|---|---|---|
| Calistoga-North | 5/8/26 | 0515 | 52.4 0.2 | 96 0 | 51.3 0.4 | - | - | - | 0.00 | 0.00 | 53.5 0.5 | 52.0 0.3 |
| Stags Leap Dist (Chimney Rock) | 5/8/26 | 0515 | 53.0 0.6 | 98 3 | 52.5 0.2 | 1.2 0.3 | SE | 136 | 2.5 1.7 | 0.00 | 0.00 | 53.8 0.3 | 52.8 0.4 |
| Diamond Mtn (McEachran) | 5/8/26 | 0515 | 51.1 0.3 | 98 1 | 50.5 0.6 | - | - | - | - | - | 52.6 0.2 | 50.8 0.4 |
| Diamond Mtn (Schramsberg) | 5/8/26 | 0515 | 50.0 0.3 | 100 0 | 50.0 0.3 | - | - | - | 0.00 | 0.00 | 51.8 0.7 | 49.6 0.7 |
| Stags Leap Dist (Silverado Vineyards) | 5/8/26 | 0515 | 52.4 0.1 | 93 1 | 50.6 0.5 | 0.3 0.2 | NW | 320 | 1.5 1.2 | 0.00 | 0.00 | 52.9 0.1 | 52.1 0.1 |
| Oak Knoll-East (Ranch 53) | 5/8/26 | 0515 | 53.0 0.1 | 94 2 | 51.3 0.6 | 1.4 0.8 | SE | 127 | 3.1 1.0 | 0.00 | 0.00 | 54.0 0.2 | 52.8 0.1 |
| Rutherford-North (Mee Ln) | 5/8/26 | 0515 | 49.8 1.0 | 95 1 | 48.6 0.7 | 1.6 0.3 | NNW | 342 | 3.9 0.7 | 0.00 | 0.00 | 51.4 0.7 | 49.7 1.0 |
| Frisinger Napa-NW | 5/8/26 | 0515 | 53.0 0.2 | 95 2 | 51.6 0.4 | 2.3 1.0 | NE | 48 | 4.5 0.7 | 0.00 | 0.00 | 53.4 0.3 | 52.8 0.3 |
| Napa-North (Ranch 29) | 5/8/26 | 0515 | 52.7 0.5 | 100 0 | 52.7 0.5 | 0.1 0.4 | S | 173 | 0.8 1.8 | 0.00 | 0.00 | 54.0 0.7 | 52.2 0.3 |
| St. Helena (NVV Office) | 5/8/26 | 0515 | 53.8 0.3 | - | - | 1.3 0.9 | NNE | 29 | 2.8 0.8 | 0.00 | 0.00 | 54.2 0.3 | 53.5 0.4 |
| Crossroads Ranch | 5/8/26 | 0515 | 53.2 0.2 | 94 2 | 51.5 0.5 | 2.3 1.2 | SE | 140 | 3.2 0.8 | 0.00 | 0.00 | 53.8 0.0 | 53.0 0.2 |
| Oakville | 5/8/26 | 0515 | 53.0 0.1 | 97 4 | 52.1 1.1 | 1.9 0.4 | SE | 141 | 3.4 0.9 | 0.00 | 0.00 | 53.4 0.2 | 52.6 0.4 |
| OV561-East | 5/8/26 | 0515 | 53.5 0.0 | - | - | - | - | - | - | - | 54.3 0.4 | 53.4 0.2 |
| OV518-West | 5/8/26 | 0515 | 53.3 0.0 | - | - | - | - | - | - | - | 53.6 0.3 | 53.0 0.3 |
| Napa-NW (Ranch 54) | 5/8/26 | 0515 | 52.9 0.4 | 100 7 | 52.9 1.7 | 1.6 0.6 | NE | 39 | 4.7 1.6 | 0.00 | 0.00 | 53.6 0.4 | 52.8 0.4 |
| Calistoga (Ranch 78) | 5/8/26 | 0515 | 52.7 0.3 | 88 5 | 49.4 1.1 | 3.4 0.5 | W | 268 | 6.7 1.2 | 0.00 | 0.00 | 52.9 0.9 | 52.2 0.1 |
| Yountville-SE (Ranch 85) | 5/8/26 | 0515 | 53.0 0.4 | 97 3 | 52.1 0.5 | 0.7 0.2 | SSE | 150 | 2.1 0.1 | 0.00 | 0.00 | 54.0 0.0 | 52.9 0.2 |
| Yountville-South (Ranch 87) | 5/8/26 | 0515 | 53.0 0.2 | 100 6 | 53.0 1.4 | 0.2 0.7 | SSE | 157 | 1.7 0.8 | 0.00 | 0.00 | 54.0 0.2 | 52.7 0.4 |
| Rutherford Hill Estate | 5/8/26 | 0515 | 52.2 0.2 | 100 0 | 52.2 0.2 | 0.7 0.4 | NW | 305 | 3.1 1.5 | 0.00 | 0.00 | 52.7 0.0 | 52.0 0.2 |
| Rutherford (STS) | 5/8/26 | 0515 | 53.3 0.2 | 85 3 | 48.8 0.8 | 1.4 0.1 | SE | 138 | 2.9 0.4 | 0.00 | 0.00 | 53.5 0.0 | 52.8 0.3 |
| Borreo (Soda Canyon) | 5/8/26 | 0500 | 50.6 0.1 | 98 0 | 50.1 0.1 | 0.3 0.1 | SE | 139 | 1.5 0.2 | 0.00 | 0.00 | 51.5 0.7 | 50.3 0.7 |
| Oakville-NE (Ranch 88) | 5/8/26 | 0515 | 53.2 0.0 | 99 7 | 52.8 2.0 | 0.0 0.4 | N | 0 | 0.0 2.8 | 0.00 | 0.00 | 53.6 0.1 | 52.9 0.2 |
| Soda Canyon | 5/8/26 | 0515 | 52.5 0.8 | 92 2 | 50.3 0.2 | 0.8 0.2 | SSE | 164 | 3.1 0.1 | 0.00 | 0.00 | 53.6 0.5 | 52.3 5.0 |
| Silver Oak OV | 5/8/26 | 0515 | 53.2 0.3 | 96 3 | 52.1 0.5 | 2.6 1.6 | SSE | 153 | 4.1 1.4 | 0.00 | 0.00 | 53.6 0.2 | 52.9 0.2 |
| Tiara Fria (East St. Helena) | 5/8/26 | 0515 | 53.4 0.1 | 93 1 | 51.4 0.3 | 2.8 1.8 | NW | 326 | 4.5 1.0 | 0.00 | 0.00 | 54.0 0.4 | 53.3 0.0 |
| To Kalon Remote (TKKE) | 5/8/26 | 0515 | 53.5 0.3 | - | - | - | - | - | - | - | 53.7 0.4 | 53.0 0.5 |
| To Kalon | 5/8/26 | 0515 | 52.9 0.3 | 98 3 | 52.5 0.5 | 1.3 0.7 | SSE | 156 | 3.5 1.8 | 0.00 | 0.00 | 53.2 0.5 | 52.6 0.5 |
| To Kalon Remote (TKN5) | 5/8/26 | 0515 | 53.6 0.1 | - | - | - | - | - | - | - | 54.0 0.1 | 53.1 0.4 |
| St. Helena-North | 5/8/26 | 0515 | 53.3 0.2 | 87 3 | 49.5 1.0 | 1.9 0.8 | NW | 314 | 7.5 4.4 | 0.00 | 0.00 | 53.9 0.1 | 53.0 0.1 |
| Twomey Calistoga | 5/8/26 | 0515 | 52.4 0.3 | 90 2 | 49.7 0.9 | 3.0 0.8 | W | 267 | 7.2 3.1 | 0.00 | 0.00 | 52.8 0.7 | 50.9 1.8 |
| Wappo Hill Floor | 5/8/26 | 0515 | 51.6 0.3 | 100 0 | 51.6 0.2 | 1.5 0.7 | ESE | 121 | 2.3 1.1 | 0.00 | 0.00 | 53.2 0.0 | 51.6 0.2 |
| Yountville (Ranch 67) | 5/8/26 | 0515 | 52.5 0.3 | 94 1 | 50.9 0.5 | 0.2 0.6 | ENE | 66 | 1.5 1.5 | 0.00 | 0.00 | 52.9 0.1 | 52.1 0.0 |
| Max | 53.8 | 100 | 53.0 | 3.4 | - | 7.5 | 0.00 | 0.00 | 54.3 | 53.5 | ||
| Avg | 52.6 | 95 | 51.2 | 1.4 | - | 3.3 | 0.00 | - | - | - | ||
| Min | 49.8 | 85 | 48.6 | 0.0 | - | 0.0 | 0.00 | 0.00 | 51.4 | 49.6 |
| Station | Date | Time | Temp (°F) | RH (%) | Dew Pt (°F) | Wind Spd (mph) | Wind Dir (°) | Wind Gust (mph) | Latest Rain (In) | Daily Rain (In) | Daily Max Temp (°F) | Daily Min Temp (°F) |
|---|---|---|---|---|---|---|---|---|---|---|---|---|
| Carneros (Milton Rd) | 5/8/26 | 0515 | 52.5 0.6 | 90 2 | 49.8 1.1 | - | - | - | 0.00 | 0.00 | 52.9 0.5 | 51.5 0.1 |
| Carneros Lower (Ranch 81) | 5/8/26 | 0515 | 52.4 0.4 | 92 7 | 50.2 1.7 | 0.1 1.7 | SSW | 193 | 2.0 2.8 | 0.00 | 0.00 | 52.4 0.2 | 52.0 0.8 |
| Carneros Upper (Ranch 81) | 5/8/26 | 0515 | 50.7 0.4 | 1 0 | -56.6 0.2 | 5.1 1.9 | WSW | 258 | 8.2 2.3 | - | - | 51.2 0.5 | 50.7 0.1 |
| Carneros (Mitsuko) | 5/8/26 | 0515 | 52.0 0.2 | - | - | - | - | - | - | - | 52.6 0.1 | 51.9 1.8 |
| Mount George (Napa East) | 5/8/26 | 0515 | 54.3 1.1 | 98 2 | 53.7 0.5 | 0.6 0.6 | SE | 124 | 2.8 0.6 | 0.00 | 0.00 | 57.6 0.9 | 54.2 1.1 |
| Napa-East (Palmaz 300') | 5/8/26 | 0515 | 51.5 0.8 | 100 5 | 51.4 0.6 | 1.0 0.4 | ENE | 78 | 2.4 1.5 | 0.00 | 0.00 | 53.0 0.8 | 51.3 0.4 |
| Napa-East (Palmaz 1200') | 5/8/26 | 0515 | 48.5 0.7 | 75 0 | 41.0 0.7 | 1.1 0.6 | SW | 225 | 3.0 1.0 | - | - | 50.1 0.7 | 48.3 0.6 |
| Napa-East (Palmaz 1400') | 5/8/26 | 0515 | 48.0 0.8 | 100 0 | 48.0 0.8 | 1.2 0.3 | SSW | 195 | 3.7 0.1 | 0.00 | 0.00 | 49.7 0.5 | 47.7 0.8 |
| Dealy Lane (Ranch 80) | 5/8/26 | 0515 | 51.8 0.4 | 95 0 | 50.3 0.3 | 1.3 0.5 | WSW | 243 | 3.7 1.1 | 0.00 | 0.00 | 52.6 0.3 | 51.6 0.1 |
| Suscol Mtn (Ranch 93) | 5/8/26 | 0515 | 48.5 0.9 | 100 0 | 48.5 0.9 | 8.6 6.5 | NW | 316 | 12.0 7.3 | 0.00 | 0.00 | 49.3 0.9 | 48.4 0.8 |
| Carneros (Saintsbury) | 5/8/26 | 0515 | 49.7 0.1 | 100 0 | 49.7 0.1 | 3.7 1.1 | WSW | 239 | 6.6 1.9 | 0.00 | 0.00 | 51.1 0.6 | 49.5 0.1 |
| Sugarloaf West | 5/8/26 | 0515 | 52.2 0.5 | 94 1 | 50.7 0.3 | 2.8 0.7 | SW | 224 | 5.9 1.8 | 0.00 | 0.00 | 53.3 0.4 | 52.1 0.7 |
| Suscol Upper (Ranch 92) | 5/8/26 | 0515 | 49.0 0.9 | 100 0 | 49.0 0.9 | 4.2 3.4 | WSW | 246 | 9.2 5.1 | 0.00 | 0.00 | 49.8 0.8 | 49.0 0.8 |
| Stanly (Ranch 45) | 5/8/26 | 0515 | 50.9 0.1 | 92 1 | 48.6 0.4 | 3.0 0.2 | W | 266 | 6.0 0.1 | 0.00 | 0.00 | 51.4 0.1 | 50.8 0.0 |
| Suscol Lower (Ranch 35) | 5/8/26 | 0515 | 51.4 0.7 | 100 1 | 51.4 0.4 | 3.7 1.6 | WSW | 251 | 6.7 1.8 | 0.00 | 0.00 | 52.2 0.7 | 51.3 0.7 |
| Napa-South (Toyon Farms) | 5/8/26 | 0515 | 52.0 0.4 | 100 0 | 52.0 0.3 | 0.4 0.4 | SW | 221 | 2.7 2.7 | 0.00 | 0.00 | 53.2 0.4 | 51.8 1.3 |
| Toyon Remote 1 | 5/8/26 | 0515 | 52.2 0.2 | - | - | - | - | - | - | - | 52.9 0.5 | 52.0 6.2 |
| Toyon Remote 2 | 5/8/26 | 0515 | 52.4 0.2 | - | - | - | - | - | - | - | 53.8 0.7 | 52.3 2.2 |
| Toyon Remote 3 | 5/8/26 | 0515 | 52.7 0.1 | - | - | - | - | - | - | - | 53.5 0.6 | 52.4 2.7 |
| Napa-West Lower (Truchard) | 5/8/26 | 0515 | 51.3 0.3 | 94 0 | 49.8 0.2 | - | - | - | - | - | 52.6 0.8 | 51.1 4.6 |
| Napa-West Upper (Truchard) | 5/8/26 | 0515 | 50.2 0.6 | 0 0 | -65.9 0.4 | 1.4 1.4 | SSW | 194 | 3.8 2.3 | 0.00 | 0.00 | 52.2 1.0 | 50.1 0.4 |
| Mt. Veeder | 5/8/26 | 0515 | 48.4 1.1 | 100 0 | 48.4 1.0 | 0.3 0.1 | NNW | 328 | 2.5 1.7 | 0.00 | 0.00 | 53.3 0.6 | 48.1 0.5 |
| Wooden Valley | 5/8/26 | 0515 | 49.6 1.2 | 97 5 | 48.7 0.1 | 2.8 1.3 | WSW | 246 | 5.5 1.5 | 0.00 | 0.00 | 54.0 0.7 | 49.2 1.3 |
| Max | 54.3 | 100 | 53.7 | 8.6 | - | 12.0 | 0.00 | 0.00 | 57.6 | 54.2 | ||
| Avg | 51.0 | 86 | 37.8 | 2.4 | - | 5.1 | 0.00 | - | - | - | ||
| Min | 48.0 | 0 | -65.9 | 0.1 | - | 2.0 | 0.00 | 0.00 | 49.3 | 47.7 |